Tracking 23610 objects as of 19-Sep-2021
HD Live streaming from Space Station
objects crossing your sky now

KL-BETA B

Track KL-BETA B now!
10-day predictions


NORAD ID: 49060
Int'l Code: 2021-070B
Perigee: 903.4 km
Apogee: 917.0 km
Inclination: 89.0 °
Period: 103.1 minutes
Semi major axis: 7281 km
RCS: Unknown
Launch date: August 4, 2021
Source: People's Republic of China (PRC)
Launch site: Taiyaun Space Center, China (TSC)
aabbcc
Your satellite tracking list
Your tracking list is empty




NASA's NSSDC Master Catalog

Two Line Element Set (TLE):
1 49060U 21070B   21262.05088605  .00000006  00000-0 -53965-5 0  9994
2 49060  88.9936  48.2716 0009319 105.6623 254.5583 13.97326536  6370
Source of the keplerian elements: AFSPC